Weather History for Orangeburg, SC

Change the Weather History Date:

Saturday, December 1, 2012

  Actual Average Record
Temperature  
Mean Temperature 56 °F 52 °F  
Max Temperature 70 °F 63 °F 80 °F (1970)
Min Temperature 41 °F 40 °F 20 °F (1979)
Degree Days  
Heating Degree Days 9 14  
Month to date heating degree days 9 14  
Since 1 July heating degree days 459 383  
Cooling Degree Days 0 0  
Month to date cooling degree days 0 0  
Year to date cooling degree days 2320 2102  
Growing Degree Days 5 (Base 50)    
Moisture  
Dew Point 46 °F    
Average Humidity 78    
Maximum Humidity 96    
Minimum Humidity 47    
Precipitation  
Precipitation 0.00 in 0.13 in 0.83 in (1974)
Month to date precipitation 0.00 0.13  
Year to date precipitation 38.30 43.54  
Sea Level Pressure  
Sea Level Pressure 30.35 in    
Wind  
Wind Speed 1 mph (East)    
Max Wind Speed 8 mph    
Max Gust Speed 12 mph    
Visibility 8 miles    
Events      
T = Trace of Precipitation, MM = Missing Value Source: NWS Daily Summary

Daily Weather History Graph

Daily Weather History Graph

Search for Another Location

Airport:

Trip Planner

Search our weather history database for the weather conditions in past years. The results will help you decide how hot, cold, wet, or windy it might be!

Date:

Astronomy

Dec. 01, 2012 Rise Set
Actual Time 7:09 AM EST 5:15 PM EST
Civil Twilight 6:42 AM EST 5:42 PM EST
Nautical Twilight 6:11 AM EST 6:13 PM EST
Astronomical Twilight 5:41 AM EST 6:43 PM EST
Moon 8:01 PM EST 9:23 AM EST
Length of Visible Light 10h 59m
Length of Day
10h 05m
Waning Gibbous, 92% of the Moon is Illuminated
Dec 1
Waning Gibbous
Dec 6
Last Quarter
Dec 13
New
Dec 20
First Quarter
Dec 28
Full

Hourly Weather History & Observations

Time (EST) Temp. Dew Point Humidity Pressure Visibility Wind Dir Wind Speed Gust Speed Precip Events Conditions
12:53 AM 45.0 °F 42.1 °F 90% 30.32 in 7.0 mi Calm Calm - N/A   Clear
1:53 AM 45.0 °F 42.1 °F 90% 30.32 in 5.0 mi Calm Calm - N/A   Clear
2:53 AM 43.0 °F 41.0 °F 93% 30.32 in 6.0 mi Calm Calm - N/A   Clear
3:53 AM 43.0 °F 41.0 °F 93% 30.32 in 7.0 mi Calm Calm - N/A   Scattered Clouds
4:53 AM 43.0 °F 39.9 °F 89% 30.32 in 6.0 mi Calm Calm - N/A   Clear
5:53 AM 41.0 °F 39.0 °F 93% 30.33 in 7.0 mi Calm Calm - N/A   Clear
6:53 AM 42.1 °F 39.9 °F 92% 30.35 in 9.0 mi Calm Calm - N/A   Mostly Cloudy
7:53 AM 46.0 °F 43.0 °F 89% 30.37 in 9.0 mi Calm Calm - N/A   Overcast
8:53 AM 52.0 °F 48.0 °F 86% 30.39 in 10.0 mi Calm Calm - N/A   Overcast
9:53 AM 59.0 °F 48.9 °F 69% 30.40 in 10.0 mi NE 4.6 mph - N/A   Overcast
10:53 AM 62.1 °F 48.0 °F 60% 30.40 in 10.0 mi East 4.6 mph - N/A   Overcast
11:53 AM 64.9 °F 48.9 °F 56% 30.38 in 10.0 mi ESE 4.6 mph - N/A   Overcast
1:53 PM 68.0 °F 48.0 °F 49% 30.33 in 10.0 mi East 3.5 mph - N/A   Overcast
2:53 PM 69.1 °F 48.9 °F 49% 30.32 in 10.0 mi ESE 5.8 mph - N/A   Overcast
3:53 PM 68.0 °F 48.9 °F 50% 30.32 in 10.0 mi ENE 4.6 mph - N/A   Clear
4:53 PM 64.0 °F 50.0 °F 60% 30.33 in 8.0 mi Calm Calm - N/A   Scattered Clouds
5:53 PM 59.0 °F 50.0 °F 72% 30.34 in 10.0 mi Calm Calm - N/A   Partly Cloudy
6:53 PM 57.0 °F 50.0 °F 77% 30.35 in 10.0 mi East 3.5 mph - N/A   Scattered Clouds
7:53 PM 53.1 °F 48.0 °F 83% 30.36 in 10.0 mi Calm Calm - N/A   Clear
8:53 PM 51.1 °F 48.0 °F 89% 30.36 in 10.0 mi Calm Calm - N/A   Clear
9:53 PM 48.9 °F 46.0 °F 90% 30.36 in 8.0 mi Calm Calm - N/A   Scattered Clouds
10:53 PM 48.0 °F 45.0 °F 89% 30.36 in 6.0 mi Calm Calm - N/A   Clear
11:53 PM 46.9 °F 44.1 °F 90% 30.36 in 5.0 mi Calm Calm - N/A   Scattered Clouds